Home > Weather > Pensacola > Past weeks

Flag for USA Past Weather in Pensacola, Florida, USA — Yesterday and Last 2 Weeks

Now
85 °F

Partly cloudy.


Feels Like: 93 °F
Forecast: 80 / 86 °F
Wind: 13 mph from Southeast

Location: Pensacola Regional Airport

Current Time: Jul 25, 2016 at 9:40:57 PM

Latest Report: Jul 25, 2016 at 9:00 PM


Visibility: 10 mi

Pressure: 29.97 "Hg

Humidity: 72%

Dew Point: 75 °F

Location of PensacolaLocation

Past Weather in Pensacola — Graph

°F

Pensacola Temperature Yesterday

Maximum temperature yesterday: 90 °F (at 11:53 AM)
Minimum temperature yesterday: 79 °F (at 5:53 AM)
Average temperature yesterday: 84 °F

High & Low Weather Summary for the Past Weeks

 TemperatureHumidityPressure
High94 °F (Jul 20, 12:53 PM)94% (Jul 11, 3:53 AM)30.24 "Hg (Jul 11, 3:53 AM)
Low73 °F (Jul 15, 2:53 AM)43% (Jul 19, 12:53 PM)29.94 "Hg (Jul 25, 2:53 AM)
Average83 °F77%30.08 "Hg
* Reported Jul 10 7:53 PM — Jul 25 7:53 PM, Pensacola, Weather by CustomWeather, © 2016

Note: Actual official high and low records may vary slightly from our data, if they occured in-between our weather recording intervals... More about our weather records

Advertising

Pensacola Weather History for the Previous 24 Hours

Scroll right to see more
 ConditionsComfort  
Time TempWeatherWind HumidityBarometerVisibility
7:53 PM
Mon, Jul 25
85 °FPassing clouds.13 mph72%29.95 "Hg10 mi
6:53 PM86 °FScattered clouds.17 mph70%29.95 "Hg10 mi
5:53 PM88 °FScattered clouds.15 mph61%29.95 "Hg10 mi
4:53 PM90 °FPassing clouds.20 mph59%29.95 "Hg10 mi
3:53 PM90 °FScattered clouds.17 mph61%29.96 "Hg10 mi
2:53 PM90 °FScattered clouds.18 mph61%29.96 "Hg10 mi
2:00 PM90 °FScattered clouds.18 mph63%29.98 "Hg10 mi
1:53 PM90 °FPartly sunny.15 mph66%29.98 "Hg10 mi
1:00 PM90 °FScattered clouds.15 mph63%29.99 "Hg10 mi
12:53 PM90 °FPartly sunny.18 mph63%30.00 "Hg10 mi
11:53 AM90 °FPartly sunny.14 mph61%30.00 "Hg10 mi
10:53 AM89 °FPartly sunny.9 mph68%30.01 "Hg10 mi
9:53 AM87 °FPartly sunny.7 mph72%30.02 "Hg10 mi
8:53 AM85 °FScattered clouds.7 mph75%30.02 "Hg10 mi
7:53 AM83 °FSunny.7 mph79%30.01 "Hg10 mi
6:53 AM80 °FPassing clouds.6 mph85%30.00 "Hg10 mi
5:53 AM80 °FClear.7 mph85%29.99 "Hg10 mi
4:53 AM83 °FClear.9 mph74%29.97 "Hg10 mi
3:53 AM83 °FPassing clouds.8 mph74%29.95 "Hg10 mi
2:53 AM83 °FPassing clouds.10 mph74%29.94 "Hg10 mi
1:53 AM81 °FPassing clouds.3 mph85%29.95 "Hg10 mi
12:53 AM83 °FPassing clouds.10 mph74%29.97 "Hg10 mi
11:53 PM
Sun, Jul 24
84 °FPassing clouds.8 mph72%30.00 "Hg10 mi
10:53 PM84 °FPassing clouds.8 mph72%30.00 "Hg10 mi
9:53 PM85 °FPartly cloudy.8 mph70%29.99 "Hg10 mi
Weather by CustomWeather, © 2016

See weather overviewHow to use our weather pages